Date String (YYYY-MM-DD hh:mm:ss) UTC,Instrument flags,Ambient pressure (hPa),Sample flow (lpm),Bypass flow (lpm),Sample temperature (°C),Ambient temperature (°C),ASC tube jacket temperature (°C),LED temperature (°C),Box temperature (°C),Sample RH (%),Span deviation,Mass concentration (μg/m³),Mass concentration (μg/m³),Mass concentration (μg/m³)
DateTimeUTC,F1_M11,P_M11,Q1_M11,Q2_M11,T1_M11,T2_M11,T3_M11,T4_M11,T5_M11,U1_M11,ZSPAN_M11,X2_M11,X0_M11,X1_M11
2022-09-10 19:00:00,,0834.0,5.00,0.00,28.2,26.7,00.0,36.9,30.1,26.6,0000.0,0004.11,0006.22,0003.94
2022-09-10 19:01:00,,0834.0,5.00,0.00,28.2,26.7,00.0,36.9,30.0,26.5,0000.0,0004.18,0006.37,0004.01
2022-09-10 19:02:00,,0834.0,5.00,0.00,28.2,26.7,00.0,36.9,30.1,26.6,0000.0,0004.24,0006.50,0004.05
2022-09-10 19:03:00,,0834.0,5.00,0.00,28.2,26.7,00.0,36.9,30.1,26.7,0000.0,0004.26,0006.56,0004.08
2022-09-10 19:04:00,,0834.0,4.99,0.00,28.2,26.7,00.0,36.9,30.1,26.8,0000.0,0004.25,0006.52,0004.08
2022-09-10 19:05:00,,0834.0,5.00,0.00,28.2,26.7,00.0,36.9,30.0,27.5,0000.0,0004.26,0006.54,0004.08
2022-09-10 19:06:00,,0834.0,5.00,0.00,28.2,26.7,00.0,36.9,30.1,27.0,0000.0,0004.23,0006.44,0004.08
2022-09-10 19:07:00,,0834.0,5.00,0.00,28.2,26.7,00.0,36.9,30.1,26.8,0000.0,0004.22,0006.38,0004.07
2022-09-10 19:08:00,,0834.0,5.00,0.00,28.2,26.7,00.0,36.9,30.1,26.5,0000.0,0004.20,0006.20,0004.05
2022-09-10 19:09:00,,0834.0,5.00,0.00,28.2,26.7,00.0,36.9,30.1,26.6,0000.0,0004.18,0005.80,0004.05
2022-09-10 19:10:00,,0834.0,4.99,0.00,28.2,26.7,00.0,36.9,30.1,26.5,0000.0,0004.16,0005.78,0004.05
2022-09-10 19:11:00,,0834.0,5.00,0.00,28.2,26.7,00.0,36.9,30.1,26.2,0000.0,0004.18,0005.84,0004.05
2022-09-10 19:12:00,,0834.0,5.00,0.00,28.2,26.7,00.0,36.9,30.1,26.0,0000.0,0004.20,0006.65,0004.05
2022-09-10 19:13:00,,0834.0,5.00,0.00,28.2,26.7,00.0,36.9,30.1,25.7,0000.0,0004.21,0006.70,0004.05
2022-09-10 19:14:00,,0834.0,5.01,0.00,28.2,26.6,00.0,36.9,30.1,25.9,0000.0,0004.20,0006.66,0004.05
2022-09-10 19:15:00,,0834.0,5.01,0.00,28.2,26.7,00.0,36.9,30.1,25.9,0000.0,0004.21,0006.71,0004.05
2022-09-10 19:16:00,,0834.0,5.00,0.00,28.2,26.7,00.0,36.9,30.0,25.7,0000.0,0004.20,0006.76,0004.04
2022-09-10 19:17:00,,0834.0,5.00,0.00,28.2,26.7,00.0,36.9,30.1,25.9,0000.0,0004.22,0007.60,0004.04
2022-09-10 19:18:00,,0834.0,4.99,0.00,28.2,26.7,00.0,36.9,30.1,25.9,0000.0,0004.24,0007.64,0004.05
2022-09-10 19:19:00,,0834.0,5.00,0.00,28.2,26.7,00.0,36.9,30.1,26.1,0000.0,0004.24,0007.66,0004.06
2022-09-10 19:20:00,,0834.0,5.00,0.00,28.2,26.7,00.0,36.9,30.1,26.6,0000.0,0004.24,0007.69,0004.05
2022-09-10 19:21:00,,0834.0,5.00,0.00,28.2,26.7,00.0,36.9,30.1,26.5,0000.0,0004.23,0007.67,0004.05
2022-09-10 19:22:00,,0834.0,4.98,0.00,28.2,26.7,00.0,36.9,30.1,26.7,0000.0,0004.21,0007.58,0004.03
2022-09-10 19:23:00,,0834.0,5.00,0.00,28.2,26.7,00.0,36.9,30.1,26.6,0000.0,0004.18,0007.03,0004.03
2022-09-10 19:24:00,,0834.0,5.00,0.00,28.2,26.7,00.0,36.9,30.1,26.5,0000.0,0004.17,0007.03,0004.02
2022-09-10 19:25:00,,0834.0,5.00,0.00,28.2,26.7,00.0,36.9,30.1,26.7,0000.0,0004.18,0007.78,0004.02
2022-09-10 19:26:00,,0834.0,5.00,0.00,28.2,26.7,00.0,36.9,30.1,26.7,0000.0,0004.17,0008.07,0004.01
2022-09-10 19:27:00,,0834.0,5.00,0.00,28.2,26.7,00.0,36.9,30.1,26.8,0000.0,0004.16,0008.00,0004.00
2022-09-10 19:28:00,,0834.0,5.00,0.00,28.2,26.7,00.0,36.9,30.1,26.6,0000.0,0004.15,0007.46,0003.99
2022-09-10 19:29:00,,0834.0,5.01,0.00,28.2,26.6,00.0,36.9,30.1,26.7,0000.0,0004.13,0007.42,0003.98
2022-09-10 19:30:00,,0834.0,5.00,0.00,28.2,26.6,00.0,36.9,30.0,26.2,0000.0,0004.14,0007.43,0003.98
2022-09-10 19:31:00,,0834.0,5.00,0.00,28.2,26.7,00.0,36.9,30.1,26.3,0000.0,0004.15,0007.41,0003.99
2022-09-10 19:32:00,,0834.0,4.99,0.00,28.2,26.7,00.0,36.9,30.1,26.9,0000.0,0004.15,0007.40,0004.00
2022-09-10 19:33:00,,0834.0,4.99,0.00,28.2,26.7,00.0,36.9,30.1,26.4,0000.0,0004.16,0007.40,0004.01
2022-09-10 19:34:00,,0834.0,5.00,0.00,28.2,26.7,00.0,36.9,30.1,26.0,0000.0,0004.20,0007.49,0004.02
2022-09-10 19:35:00,,0834.1,5.00,0.00,28.2,26.7,00.0,36.9,30.1,25.9,0000.0,0004.23,0007.56,0004.02
2022-09-10 19:36:00,,0834.0,5.00,0.00,28.2,26.7,00.0,36.9,30.1,26.2,0000.0,0004.25,0006.95,0004.03
2022-09-10 19:37:00,,0834.1,5.00,0.00,28.2,26.7,00.0,36.9,30.1,26.1,0000.0,0004.26,0006.16,0004.04
2022-09-10 19:38:00,,0834.1,5.01,0.00,28.2,26.7,00.0,36.9,30.1,25.7,0000.0,0004.26,0006.16,0004.03
2022-09-10 19:39:00,,0834.1,5.00,0.00,28.2,26.7,00.0,36.9,30.1,25.9,0000.0,0004.23,0006.07,0004.02
2022-09-10 19:40:00,,0834.1,5.00,0.00,28.2,26.7,00.0,36.9,30.1,26.0,0000.0,0004.21,0006.05,0004.00
2022-09-10 19:41:00,,0834.1,5.00,0.00,28.2,26.7,00.0,36.9,30.1,26.1,0000.0,0004.19,0006.06,0003.97
2022-09-10 19:42:00,,0834.1,5.00,0.00,28.2,26.7,00.0,36.9,30.1,26.2,0000.0,0004.13,0005.98,0003.92
2022-09-10 19:43:00,,0834.0,4.99,0.00,28.2,26.7,00.0,36.9,30.1,26.4,0000.0,0004.11,0006.02,0003.88
2022-09-10 19:44:00,,0834.1,4.99,0.00,28.2,26.7,00.0,36.9,30.1,26.2,0000.0,0004.07,0006.01,0003.82
2022-09-10 19:45:00,,0834.1,5.00,0.00,28.2,26.7,00.0,36.9,30.1,26.2,0000.0,0003.98,0005.79,0003.77
2022-09-10 19:46:00,,0834.1,5.00,0.00,28.2,26.7,00.0,36.9,30.1,26.2,0000.0,0003.92,0005.65,0003.72
2022-09-10 19:47:00,,0834.1,5.00,0.00,28.2,26.7,00.0,37.0,30.1,26.0,0000.0,0003.85,0005.50,0003.67
2022-09-10 19:48:00,,0834.1,5.00,0.00,28.2,26.7,00.0,36.9,30.1,26.2,0000.0,0003.80,0005.86,0003.63
2022-09-10 19:49:00,,0834.1,5.00,0.00,28.2,26.7,00.0,36.9,30.1,26.2,0000.0,0003.77,0006.25,0003.60
2022-09-10 19:50:00,,0834.1,5.00,0.00,28.2,26.7,00.0,37.0,30.1,25.9,0000.0,0003.75,0006.22,0003.57
2022-09-10 19:51:00,,0834.1,5.00,0.00,28.2,26.7,00.0,37.0,30.1,26.0,0000.0,0003.75,0006.21,0003.56
2022-09-10 19:52:00,,0834.1,4.98,0.00,28.2,26.8,00.0,37.0,30.1,25.7,0000.0,0003.73,0006.13,0003.54
2022-09-10 19:53:00,,0834.1,5.00,0.00,28.2,26.8,00.0,37.0,30.1,25.8,0000.0,0003.71,0006.06,0003.53
2022-09-10 19:54:00,,0834.1,5.00,0.00,28.2,26.8,00.0,37.0,30.1,25.8,0000.0,0003.69,0005.96,0003.53
2022-09-10 19:55:00,,0834.1,5.00,0.00,28.3,26.8,00.0,37.0,30.1,25.5,0000.0,0003.69,0005.89,0003.54
2022-09-10 19:56:00,,0834.1,5.01,0.00,28.3,26.8,00.0,37.0,30.1,25.9,0000.0,0003.72,0005.95,0003.56
2022-09-10 19:57:00,,0834.1,5.00,0.00,28.3,26.8,00.0,37.0,30.1,25.5,0000.0,0003.74,0005.89,0003.59
2022-09-10 19:58:00,,0834.1,5.00,0.00,28.3,26.8,00.0,37.0,30.1,25.4,0000.0,0003.76,0005.89,0003.62
2022-09-10 19:59:00,,0834.1,4.99,0.00,28.3,26.8,00.0,37.0,30.1,25.5,0000.0,0003.79,0005.50,0003.65
